| time (UTC) | temp F | wind direction | speed knots | gust knots | rain 1hr in | rain 24hr in | rain mn in | humidity % | barometer mb |
| 20260506110036 | 63 | 273 | 15.6 | 30.4 | 0.00 | 0.00 | 0.00 | 69 | 1013.8 |
| 20260506104540 | 62 | 223 | 15.6 | 28.7 | 0.00 | 0.00 | 0.00 | 70 | 1013.9 |
| 20260506103037 | 60 | 229 | 13.9 | 29.5 | 0.00 | 0.00 | 0.00 | 71 | 1013.8 |
| 20260506101545 | 59 | 217 | 12.2 | 23.5 | 0.00 | 0.00 | 0.00 | 72 | 1014.1 |
| 20260506100034 | 58 | 228 | 13.0 | 26.9 | 0.00 | 0.00 | 0.00 | 73 | 1014.0 |
| 20260506094536 | 58 | 247 | 15.6 | 23.5 | 0.00 | 0.00 | 0.00 | 74 | 1013.7 |
| 20260506093033 | 58 | 248 | 13.9 | 29.5 | 0.00 | 0.00 | 0.00 | 73 | 1013.7 |
| 20260506091532 | 58 | 217 | 16.5 | 25.2 | 0.00 | 0.00 | 0.00 | 75 | 1013.4 |
| 20260506090033 | 56 | 245 | 13.0 | 26.9 | 0.00 | 0.00 | 0.00 | 77 | 1013.2 |
| 20260506084541 | 56 | 246 | 12.2 | 22.6 | 0.00 | 0.00 | 0.00 | 76 | 1012.9 |
| 20260506083037 | 56 | 234 | 13.0 | 21.7 | 0.00 | 0.00 | 0.00 | 78 | 1013.0 |
| 20260506081534 | 55 | 227 | 11.3 | 20.9 | 0.00 | 0.00 | 0.00 | 78 | 1012.9 |
| 20260506073037 | 55 | 245 | 12.2 | 20.9 | 0.00 | 0.00 | 0.00 | 78 | 1013.4 |
| 20260506071537 | 56 | 223 | 8.7 | 15.6 | 0.00 | 0.00 | 0.00 | 77 | 1013.3 |
| 20260506061534 | 55 | 217 | 8.7 | 17.4 | 0.00 | 0.00 | 0.00 | 76 | 1013.3 |
| 20260506044534 | 55 | 275 | 14.8 | 26.9 | 0.00 | 0.00 | 0.00 | 75 | 1013.0 |
| 20260506043033 | 56 | 329 | 16.5 | 25.2 | 0.00 | 0.00 | 0.00 | 74 | 1012.9 |
| 20260506041536 | 57 | 262 | 15.6 | 26.9 | 0.00 | 0.00 | 0.00 | 73 | 1012.5 |
| 20260506040039 | 57 | 221 | 15.6 | 28.7 | 0.00 | 0.00 | 0.00 | 72 | 1012.5 |
| 20260506034534 | 58 | 234 | 15.6 | 26.1 | 0.00 | 0.00 | 0.00 | 71 | 1012.3 |
| 20260506033035 | 59 | 237 | 16.5 | 32.2 | 0.00 | 0.00 | 0.00 | 67 | 1012.4 |
| 20260506031535 | 59 | 242 | 14.8 | 28.7 | 0.00 | 0.00 | 0.00 | 67 | 1012.3 |
| 20260506030035 | 60 | 258 | 20.0 | 29.5 | 0.00 | 0.00 | 0.00 | 67 | 1012.2 |
| 20260506024536 | 59 | 243 | 17.4 | 31.3 | 0.00 | 0.00 | 0.00 | 68 | 1012.1 |
| 20260506023046 | 59 | 250 | 16.5 | 26.9 | 0.00 | 0.00 | 0.00 | 68 | 1012.4 |
| 20260506021536 | 58 | 240 | 14.8 | 25.2 | 0.00 | 0.00 | 0.00 | 68 | 1012.4 |
| 20260506020035 | 58 | 208 | 13.0 | 23.5 | 0.00 | 0.00 | 0.00 | 69 | 1012.5 |
| 20260506014537 | 58 | 240 | 16.5 | 25.2 | 0.00 | 0.00 | 0.00 | 68 | 1012.4 |
| 20260506013033 | 59 | 223 | 14.8 | 26.9 | 0.00 | 0.00 | 0.00 | 65 | 1012.5 |
| 20260506011535 | 59 | 229 | 15.6 | 25.2 | 0.00 | 0.00 | 0.00 | 65 | 1012.2 |
| 20260506010047 | 59 | 238 | 13.9 | 30.4 | 0.00 | 0.00 | 0.00 | 64 | 1012.3 |
| 20260506004535 | 58 | 217 | 11.3 | 18.2 | 0.00 | 0.00 | 0.00 | 65 | 1012.0 |
| 20260506003034 | 59 | 236 | 12.2 | 23.5 | 0.00 | 0.00 | 0.00 | 62 | 1011.6 |
| 20260506001539 | 60 | 230 | 13.0 | 20.9 | 0.00 | 0.00 | 0.00 | 60 | 1011.4 |
| 20260506000034 | 59 | 216 | 10.4 | 20.9 | 0.00 | 0.00 | 0.00 | 60 | 1011.4 |
| 20260505234551 | 60 | 162 | 10.4 | 19.1 | 0.00 | 0.00 | 0.00 | 59 | 1011.1 |
| 20260505233039 | 60 | 215 | 6.1 | 14.8 | 0.00 | 0.00 | 0.00 | 57 | 1010.9 |
| 20260505231535 | 60 | 213 | 8.7 | 18.2 | 0.00 | 0.00 | 0.00 | 56 | 1010.8 |
| 20260505230034 | 58 | 173 | 6.1 | 12.2 | 0.00 | 0.00 | 0.00 | 59 | 1010.7 |
| 20260505224536 | 62 | 199 | 7.0 | 13.9 | 0.00 | 0.00 | 0.00 | 53 | 1010.5 |
| 20260505223041 | 63 | 202 | 9.6 | 17.4 | 0.00 | 0.00 | 0.00 | 53 | 1010.5 |
| 20260505221536 | 63 | 236 | 8.7 | 14.8 | 0.00 | 0.00 | 0.00 | 51 | 1010.3 |
| 20260505220036 | 64 | 209 | 9.6 | 18.2 | 0.00 | 0.00 | 0.00 | 53 | 1010.2 |
| 20260505214558 | 67 | 221 | 12.2 | 20.0 | 0.00 | 0.00 | 0.00 | 48 | 1010.3 |
| 20260505213036 | 67 | 231 | 9.6 | 17.4 | 0.00 | 0.00 | 0.00 | 49 | 1010.1 |
| 20260505211535 | 68 | 232 | 10.4 | 20.9 | 0.00 | 0.00 | 0.00 | 46 | 1010.2 |
| 20260505210034 | 66 | 202 | 11.3 | 23.5 | 0.00 | 0.00 | 0.00 | 51 | 1010.3 |
| 20260505204537 | 61 | 187 | 7.8 | 14.8 | 0.00 | 0.00 | 0.00 | 57 | 1010.1 |
| 20260505203040 | 64 | 166 | 7.8 | 15.6 | 0.00 | 0.00 | 0.00 | 54 | 1010.0 |
| 20260505201537 | 61 | 244 | 8.7 | 13.9 | 0.00 | 0.00 | 0.00 | 58 | 1010.0 |
| 20260505200046 | 60 | 179 | 9.6 | 18.2 | 0.00 | 0.00 | 0.00 | 60 | 1009.9 |
| 20260505194544 | 62 | 111 | 9.6 | 16.5 | 0.00 | 0.00 | 0.00 | 56 | 1009.9 |
| 20260505193036 | 72 | 165 | 6.1 | 20.9 | 0.00 | 0.00 | 0.00 | 39 | 1009.7 |
| 20260505191535 | 75 | 277 | 13.0 | 23.5 | 0.00 | 0.00 | 0.00 | 32 | 1009.4 |
| 20260505190037 | 74 | 257 | 11.3 | 23.5 | 0.00 | 0.00 | 0.00 | 36 | 1009.5 |
| 20260505184534 | 74 | 247 | 15.6 | 27.8 | 0.00 | 0.00 | 0.00 | 36 | 1009.5 |
| 20260505183033 | 74 | 232 | 13.0 | 27.8 | 0.00 | 0.00 | 0.00 | 36 | 1009.6 |
| 20260505181537 | 74 | 229 | 13.0 | 26.1 | 0.00 | 0.00 | 0.00 | 36 | 1009.5 |
| 20260505180057 | 74 | 219 | 13.9 | 29.5 | 0.00 | 0.00 | 0.00 | 36 | 1009.5 |
| 20260505174550 | 70 | 237 | 14.8 | 26.9 | 0.00 | 0.00 | 0.00 | 45 | 1009.6 |
| 20260505173042 | 65 | 211 | 9.6 | 19.1 | 0.00 | 0.00 | 0.00 | 58 | 1010.0 |
| 20260505171533 | 61 | 175 | 10.4 | 18.2 | 0.00 | 0.00 | 0.00 | 64 | 1009.9 |
| 20260505170037 | 62 | 167 | 10.4 | 20.0 | 0.00 | 0.00 | 0.00 | 62 | 1010.1 |
| 20260505164535 | 57 | 180 | 10.4 | 19.1 | 0.00 | 0.01 | 0.00 | 67 | 1010.1 |
| 20260505163035 | 57 | 149 | 7.8 | 15.6 | 0.00 | 0.01 | 0.00 | 68 | 1010.0 |
| 20260505161537 | 56 | 170 | 11.3 | 16.5 | 0.00 | 0.01 | 0.00 | 69 | 1010.1 |
| 20260505153036 | 55 | 154 | 7.0 | 14.8 | 0.00 | 0.15 | 0.00 | 69 | 1010.5 |
| 20260505151535 | 57 | 148 | 8.7 | 16.5 | 0.00 | 0.15 | 0.00 | 64 | 1010.3 |
| 20260505124543 | 56 | 246 | 7.8 | 13.9 | 0.00 | 0.29 | 0.00 | 64 | 1010.7 |
| 20260505123037 | 54 | 204 | 4.3 | 11.3 | 0.00 | 0.29 | 0.00 | 67 | 1010.5 |
| 20260505121535 | 48 | 101 | 1.7 | 7.8 | 0.00 | 0.29 | 0.00 | 78 | 1010.4 |
| 20260505120043 | 46 | 135 | 6.1 | 8.7 | 0.00 | 0.29 | 0.00 | 78 | 1010.2 |
| 20260505114540 | 46 | 145 | 5.2 | 12.2 | 0.00 | 0.29 | 0.00 | 79 | 1010.2 |
| 20260505113036 | 49 | 138 | 4.3 | 12.2 | 0.00 | 0.29 | 0.00 | 75 | 1010.2 |
| 20260505111537 | 49 | 239 | 6.1 | 13.9 | 0.00 | 0.29 | 0.00 | 76 | 1010.0 |